[[{"header":{"parameterUnit":"m.s-1","parameterCategory":1,"la1":30.2991,"la2":30.254,"lo1":-89.0895,"lo2":-89.0444,"dy":0.0017,"dx":0.0017,"nx":28,"ny":28,"refTime":"2025-08-16T09:00:00:Z","depth":0,"parameterNumber":2,"parameterNumberName":"U-component_of_WINDS"},"data":[0,0,0,0,0,0,0,0,0,0,0,0,0,0,0,0,0,0,0,0,0,0,0,0,0,0,0,0,0,0,0,0,0,0,0,0,0,0,0,0,0,0,0,0,0,0,0,0,0,0,0,0,0,0,0,0,0,0,4.5845,4.5846,0,4.5987,4.5989,4.599,4.5923,4.5919,4.5916,4.5912,4.605,4.6057,4.6064,0,0,0,0,0,0,0,0,0,0,0,0,0,4.5509,4.5515,4.5845,4.5847,4.5848,4.5987,4.5989,4.5991,4.5923,4.5919,4.5915,4.5911,4.6048,4.6056,4.6065,0,0,0,0,0,0,0,0,0,0,0,0,0,4.5653,4.5518,4.5844,4.5832,4.5832,4.5986,4.5989,4.5991,4.5924,4.5919,4.5913,4.5908,4.6045,4.6055,4.6066,4.6239,0,0,4.6098,4.6103,0,0,0,0,0,0,0,0,4.5645,4.5665,4.5832,4.5833,4.5834,4.5932,4.5921,4.6074,4.5926,4.5889,4.5912,4.5906,4.6015,4.6027,4.6066,4.6245,4.6251,4.6099,4.6105,4.611,4.6113,0,0,0,0,0,0,0,4.5635,4.5659,4.5901,4.5834,4.5835,4.5817,4.5831,4.5949,4.598,4.5892,4.5887,4.5905,4.6014,4.6056,4.6068,4.6253,4.6099,4.6108,4.6114,4.6119,4.6581,4.6587,0,0,0,0,0,0,4.5626,4.5651,4.5896,4.5905,4.5724,4.5827,4.5843,4.5906,4.5979,4.5985,4.591,4.5902,4.604,4.6056,4.6073,4.628,4.611,4.612,4.6126,4.6575,4.6583,4.6589,0,0,0,0,0,0,4.562,4.5649,4.589,4.5777,4.5806,4.5839,4.5909,4.5911,4.5953,4.5992,4.5997,4.5947,4.6037,4.6058,4.6198,4.6284,4.6124,4.6134,4.6568,4.6578,4.6586,4.6695,0,0,0,0,0,0,4.561,4.5647,4.5714,4.5779,4.5813,4.6016,4.5914,4.5918,4.5972,4.5963,4.6029,4.6034,4.6034,4.6183,4.6209,4.6295,4.6142,4.6561,4.6572,4.6583,4.6684,4.6707,4.6726,0,0,0,0,0,4.5598,4.5738,4.5718,4.5748,4.5898,4.6021,4.604,4.6039,4.5979,4.6046,4.6072,4.6032,4.6271,4.6198,4.6226,4.6317,4.6555,4.6569,4.6582,4.6675,4.6702,4.6726,0,0,0,0,0,0,4.5678,4.5746,4.5725,4.589,4.5951,4.6009,4.6094,4.6068,4.6145,4.6133,4.6126,4.6142,4.6287,4.6316,4.6234,4.6488,4.6403,4.6423,4.6464,4.6491,4.6511,4.65,4.6151,0,0,0,0,0,4.5716,4.5813,4.5865,4.6005,4.6037,4.6061,4.6114,4.6109,4.617,4.6195,4.623,4.629,4.6378,4.6436,4.6519,4.6689,4.6701,4.6765,4.6786,4.6803,4.682,4.6911,4.694,4.6633,4.6633,4.6633,0,0,4.5793,4.5842,4.5902,4.6023,4.6069,4.6167,4.6083,4.619,4.6262,4.621,4.6345,4.6374,4.644,4.6596,4.6666,4.6624,4.6908,4.682,4.6834,4.6841,4.6928,4.6957,4.6983,4.6642,4.6641,4.6639,0,0,4.5983,4.6031,4.6153,4.6202,4.6275,4.629,4.632,4.6384,4.6401,4.6538,4.6502,4.6586,4.6739,4.6787,4.6832,4.7043,4.7009,4.7071,4.718,4.7269,4.7293,4.7314,4.7389,4.7416,4.7087,4.7088,4.7088,0,4.6068,4.6218,4.6218,4.6329,4.6383,4.6345,4.6467,4.6514,4.6609,4.6646,4.6599,4.6791,4.6832,4.6998,4.705,4.7088,4.712,4.7062,4.729,4.7311,4.7331,4.7402,4.743,4.7095,4.7094,4.7093,4.7092,0,4.6319,4.6423,4.6512,4.6609,4.6673,4.6789,4.6805,4.687,4.6859,4.6879,4.7018,4.7067,4.716,4.7199,4.7189,4.7365,4.7337,4.7291,4.7204,4.7367,4.7434,4.7461,4.7104,4.7102,4.71,4.7098,0,0,4.656,4.6659,4.6691,4.6735,4.6814,4.6893,4.7007,4.7101,4.7156,4.7223,4.7318,4.7449,4.7407,4.7458,4.7453,4.7532,4.7696,4.7475,4.7477,4.7514,4.7891,4.7924,4.7956,4.7675,4.768,4.7684,4.7885,0,4.6755,4.6958,4.6963,4.7148,4.7244,4.721,4.731,4.7368,4.739,4.7472,4.7495,4.7588,4.7526,4.7557,4.7633,4.7659,4.7771,4.7645,4.776,4.7764,4.7743,4.7991,4.8026,4.8214,4.7911,4.7916,4.7919,0,4.7009,4.7088,4.7284,4.7351,4.7391,4.7481,4.7567,4.7648,4.7713,4.7723,4.7782,4.7766,4.788,4.7793,4.795,4.7865,4.7912,4.7933,4.794,4.7949,4.785,4.8005,4.8274,4.8301,4.796,4.7957,4.7954,0,4.7164,4.7319,4.7457,4.7496,4.7577,4.7641,4.7677,4.7737,4.7794,4.787,4.7906,4.7993,4.804,4.8107,4.8114,4.805,4.8272,4.8185,4.8282,4.8282,4.8328,4.8325,4.8607,4.8362,4.8362,4.8361,4.8361,0,4.7379,4.75,4.7528,4.7612,4.7746,4.7751,4.7883,4.7913,4.7968,4.8056,4.8032,4.8114,4.812,4.8205,4.8211,4.834,4.8361,4.8372,4.8371,4.8373,4.8372,4.8402,4.8389,4.8369,4.8367,4.8366,4.8365,0,4.7574,4.7598,4.7745,4.7812,4.7832,4.7927,4.7983,4.8063,4.8084,4.8196,4.8222,4.8254,4.8353,4.8368,4.8482,4.8486,4.8641,4.8628,4.862,4.8617,4.8713,4.8703,4.9022,4.9064,4.8794,4.8797,4.8799,0,4.7708,4.7801,4.788,4.7939,4.798,4.8075,4.8133,4.8142,4.8203,4.8286,4.8356,4.8453,4.853,4.8689,4.8721,4.8808,4.8796,4.8903,4.8809,4.8808,4.8796,4.879,4.8799,4.8919,4.8922,4.8925,4.8927,0,4.7945,4.7953,4.8041,4.8134,4.8205,4.8278,4.8346,4.8395,4.8412,4.8482,4.8585,4.8645,4.8765,4.886,4.8948,4.8983,4.8957,4.8957,4.8983,4.8985,4.8976,4.8981,4.8667,4.8948,4.8946,4.8945,4.8943,4.8943,4.8112,4.8194,4.8263,4.8361,4.8414,4.8479,4.8558,4.8591,4.8677,4.8777,4.8776,4.8888,4.8952,4.9067,4.9109,4.9195,4.916,4.9199,4.9209,4.9218,4.9227,4.8964,4.9211,4.921,4.921,4.9209,4.9209,0,4.8346,4.839,4.8481,4.8579,4.8657,4.8631,4.8706,4.8771,4.8871,4.8934,4.9013,4.913,4.9224,4.9265,4.9357,4.9418,4.9409,4.9441,4.9436,4.9444,4.9253,4.922,4.9448,4.9448,4.9448,4.9447,4.9447,4.9447,4.8477,4.8613,4.863,4.8792,4.8834,4.8947,4.8992,4.9051,4.9102,4.9236,4.9315,4.9342,4.9396,4.9492,4.9576,4.9586,4.962,4.9658,4.9662,4.9482,4.9457,4.9434,4.9403,4.9666,4.9666,4.9845,4.9847,4.9848]},{"header":{"parameterUnit":"m.s-1","parameterCategory":1,"la1":30.2991,"la2":30.254,"lo1":-89.0895,"lo2":-89.0444,"dy":0.0017,"dx":0.0017,"nx":28,"ny":28,"refTime":"2025-08-16T09:00:00:Z","depth":0,"parameterNumber":3,"parameterNumberName":"V-component_of_WINDS"},"data":[0,0,0,0,0,0,0,0,0,0,0,0,0,0,0,0,0,0,0,0,0,0,0,0,0,0,0,0,0,0,0,0,0,0,0,0,0,0,0,0,0,0,0,0,0,0,0,0,0,0,0,0,0,0,0,0,0,0,-2.3014,-2.3015,0,-2.3134,-2.3135,-2.3136,-2.3125,-2.3123,-2.3121,-2.3119,-2.3238,-2.3243,-2.3248,0,0,0,0,0,0,0,0,0,0,0,0,0,-2.2768,-2.2773,-2.3014,-2.3015,-2.3017,-2.3133,-2.3135,-2.3137,-2.3125,-2.3123,-2.312,-2.3118,-2.3236,-2.3242,-2.3248,0,0,0,0,0,0,0,0,0,0,0,0,0,-2.288,-2.2774,-2.3013,-2.3025,-2.3027,-2.3133,-2.3135,-2.3137,-2.3125,-2.3123,-2.312,-2.3117,-2.3235,-2.3242,-2.3249,-2.335,0,0,-2.3271,-2.3275,0,0,0,0,0,0,0,0,-2.2874,-2.2889,-2.3022,-2.3024,-2.3027,-2.3111,-2.3092,-2.3208,-2.3126,-2.3088,-2.3119,-2.3116,-2.3198,-2.3208,-2.3237,-2.3356,-2.3361,-2.3272,-2.3276,-2.328,-2.3282,0,0,0,0,0,0,0,-2.2866,-2.2884,-2.3061,-2.3024,-2.3027,-2.3022,-2.3035,-2.3114,-2.3157,-2.3091,-2.3091,-2.3105,-2.3199,-2.323,-2.3239,-2.3362,-2.3272,-2.3278,-2.3283,-2.3286,-2.3566,-2.3569,0,0,0,0,0,0,-2.2856,-2.2877,-2.3057,-2.3065,-2.2942,-2.3029,-2.3043,-2.3087,-2.3156,-2.3164,-2.3107,-2.3104,-2.3218,-2.3231,-2.3243,-2.3364,-2.328,-2.3286,-2.3291,-2.3563,-2.3566,-2.357,0,0,0,0,0,0,-2.2851,-2.2872,-2.3052,-2.2971,-2.2993,-2.3036,-2.3085,-2.3091,-2.3122,-2.3168,-2.3175,-2.3131,-2.3217,-2.3233,-2.3323,-2.3368,-2.329,-2.3296,-2.3559,-2.3564,-2.3568,-2.3608,0,0,0,0,0,0,-2.2844,-2.287,-2.2911,-2.2972,-2.2998,-2.3132,-2.3088,-2.3095,-2.3135,-2.3132,-2.3193,-2.32,-2.3216,-2.3312,-2.333,-2.3377,-2.3302,-2.3555,-2.3561,-2.3567,-2.3603,-2.3614,-2.3623,0,0,0,0,0,-2.2835,-2.2918,-2.2914,-2.2935,-2.305,-2.3135,-2.315,-2.3167,-2.3139,-2.3179,-2.3208,-2.3198,-2.336,-2.3321,-2.3342,-2.3392,-2.3552,-2.3559,-2.3566,-2.3599,-2.3612,-2.3622,0,0,0,0,0,0,-2.2862,-2.2926,-2.2922,-2.3028,-2.3076,-2.3133,-2.3185,-2.3181,-2.3237,-2.3232,-2.3249,-2.3263,-2.3353,-2.3381,-2.3337,-2.3491,-2.3452,-2.3463,-2.347,-2.3483,-2.3492,-2.3484,-2.3308,0,0,0,0,0,-2.288,-2.2945,-2.2997,-2.3085,-2.3109,-2.3143,-2.318,-2.3189,-2.3239,-2.326,-2.3296,-2.3343,-2.3404,-2.3445,-2.3504,-2.3606,-2.3618,-2.365,-2.3659,-2.3667,-2.3677,-2.373,-2.3744,-2.3592,-2.3592,-2.3592,0,0,-2.2919,-2.2962,-2.3002,-2.3091,-2.313,-2.3195,-2.316,-2.3231,-2.3279,-2.327,-2.3357,-2.3384,-2.3439,-2.3534,-2.3578,-2.356,-2.3721,-2.3676,-2.3682,-2.3688,-2.3739,-2.3753,-2.3766,-2.3597,-2.3596,-2.3595,0,0,-2.3022,-2.3062,-2.3138,-2.3177,-2.3235,-2.3256,-2.3273,-2.333,-2.3348,-2.3436,-2.343,-2.3485,-2.3591,-2.3629,-2.3662,-2.3774,-2.3766,-2.3792,-2.3844,-2.3895,-2.3907,-2.3918,-2.3956,-2.397,-2.3801,-2.3802,-2.3802,0,-2.3062,-2.3162,-2.3178,-2.3249,-2.3287,-2.3281,-2.3357,-2.3393,-2.3467,-2.3492,-2.3471,-2.3601,-2.3637,-2.374,-2.3767,-2.3795,-2.3814,-2.3787,-2.3904,-2.3915,-2.3926,-2.3962,-2.3977,-2.3804,-2.3804,-2.3804,-2.3803,0,-2.3208,-2.3276,-2.333,-2.3402,-2.3446,-2.3519,-2.3543,-2.3585,-2.3588,-2.361,-2.3697,-2.3739,-2.3805,-2.383,-2.3834,-2.3932,-2.3919,-2.3901,-2.3863,-2.3943,-2.3977,-2.3992,-2.3808,-2.3807,-2.3806,-2.3806,0,0,-2.3336,-2.3412,-2.3432,-2.3463,-2.3524,-2.3576,-2.3646,-2.3711,-2.3746,-2.3796,-2.3854,-2.3941,-2.3924,-2.3961,-2.3968,-2.4013,-2.4097,-2.3989,-2.3991,-2.4007,-2.4205,-2.4219,-2.4235,-2.4091,-2.4094,-2.4096,-2.42,0,-2.3445,-2.3573,-2.3586,-2.3699,-2.376,-2.3752,-2.3813,-2.3856,-2.3876,-2.393,-2.3952,-2.4013,-2.3986,-2.4008,-2.4052,-2.4077,-2.4137,-2.407,-2.4144,-2.4146,-2.4131,-2.4253,-2.4269,-2.4366,-2.4214,-2.4216,-2.4218,0,-2.3592,-2.3645,-2.3764,-2.3812,-2.3839,-2.3894,-2.3952,-2.4004,-2.405,-2.4061,-2.4101,-2.4101,-2.4171,-2.4128,-2.4222,-2.4176,-2.4206,-2.4223,-2.4227,-2.4235,-2.4188,-2.4265,-2.4397,-2.4412,-2.424,-2.4238,-2.4236,0,-2.3673,-2.3773,-2.3857,-2.3883,-2.3943,-2.3981,-2.4007,-2.4051,-2.4087,-2.4137,-2.416,-2.4217,-2.4249,-2.4291,-2.4306,-2.4274,-2.4399,-2.4358,-2.4409,-2.4408,-2.4437,-2.4435,-2.4576,-2.4456,-2.4455,-2.4455,-2.4455,0,-2.3794,-2.3867,-2.3893,-2.3945,-2.4024,-2.4037,-2.4114,-2.4138,-2.4176,-2.423,-2.4225,-2.4275,-2.4291,-2.4343,-2.4354,-2.4429,-2.4443,-2.4452,-2.4455,-2.4454,-2.4452,-2.4474,-2.4468,-2.4459,-2.4458,-2.4457,-2.4457,0,-2.39,-2.3921,-2.401,-2.4058,-2.4071,-2.4127,-2.4167,-2.4215,-2.4232,-2.43,-2.4316,-2.4344,-2.4405,-2.4422,-2.4495,-2.4502,-2.459,-2.4586,-2.4575,-2.4575,-2.4624,-2.4619,-2.4785,-2.4806,-2.4672,-2.4673,-2.4674,0,-2.3977,-2.4032,-2.4084,-2.412,-2.4148,-2.4206,-2.4242,-2.4254,-2.4292,-2.4346,-2.4387,-2.4446,-2.4495,-2.459,-2.4616,-2.467,-2.4667,-2.4721,-2.4675,-2.4671,-2.4667,-2.4664,-2.4668,-2.473,-2.4732,-2.4733,-2.4734,0,-2.4111,-2.4117,-2.4171,-2.4227,-2.427,-2.4315,-2.4358,-2.4387,-2.4405,-2.4447,-2.4508,-2.4546,-2.4618,-2.4676,-2.473,-2.4754,-2.4747,-2.4747,-2.4762,-2.4762,-2.4753,-2.4757,-2.4598,-2.4744,-2.4743,-2.4743,-2.4742,-2.4742,-2.4204,-2.4252,-2.4295,-2.4353,-2.4386,-2.4425,-2.4471,-2.4494,-2.4545,-2.4606,-2.4609,-2.4675,-2.4714,-2.4786,-2.4813,-2.4862,-2.4846,-2.4868,-2.4873,-2.4878,-2.4882,-2.4744,-2.4872,-2.4872,-2.4872,-2.4871,-2.4871,0,-2.4338,-2.4364,-2.4417,-2.4476,-2.4521,-2.4509,-2.4554,-2.4592,-2.465,-2.4688,-2.4735,-2.4803,-2.4858,-2.4886,-2.494,-2.4974,-2.4971,-2.4987,-2.4985,-2.499,-2.4894,-2.4876,-2.4988,-2.4988,-2.4988,-2.4988,-2.4988,-2.4988,-2.4412,-2.4491,-2.4501,-2.4594,-2.4619,-2.4684,-2.4711,-2.4745,-2.4775,-2.4852,-2.4897,-2.4915,-2.4947,-2.5003,-2.5051,-2.5058,-2.5077,-2.5095,-2.51,-2.501,-2.4998,-2.4986,-2.4969,-2.51,-2.51,-2.5192,-2.5193,-2.5194]}]]